Mosinee, WI

3:30 PM CDT on April 29, 2017 (GMT -0500)
Central Wisconsin

Weather History for KCWA - November, 2013

Change the Weather History Date:

Saturday, November 16, 2013

  Actual Average Record
Temperature  
Mean Temperature 44 °F -  
Max Temperature 53 °F 38 °F 53 °F (2001)
Min Temperature 35 °F 23 °F 8 °F (2014)
Degree Days  
Heating Degree Days 21    
Moisture  
Dew Point 42 °F    
Average Humidity 96    
Maximum Humidity 100    
Minimum Humidity 81    
Precipitation  
Precipitation 0.00 in - - ()
Sea Level Pressure  
Sea Level Pressure 29.58 in    
Wind  
Wind Speed 11 mph (SSE)    
Max Wind Speed 17 mph    
Max Gust Speed 24 mph    
Visibility 7 miles    
Events Fog , Rain , Thunderstorm    
Averages and records for this station are not official NWS values.
T = Trace of Precipitation, MM = Missing Value Source: NWS Daily Summary

Daily Weather History Graph

Daily Weather History Graph

Search for Another Location

Airport or City:

Trip Planner

Search our weather history database for the weather conditions in past years. The results will help you decide how hot, cold, wet, or windy it might be!

Date:

Astronomy

Nov. 16, 2013 Rise Set
Actual Time 6:57 AM CST 4:29 PM CST
Civil Twilight 6:25 AM CST 5:00 PM CST
Nautical Twilight 5:50 AM CST 5:36 PM CST
Astronomical Twilight 5:15 AM CST 6:10 PM CST
Moon 4:05 PM CST (11/16) 5:51 AM CST (11/16)
Length of Visible Light 10h 35m
Length of Day
9h 31m
Waxing Gibbous, 99% of the Moon is Illuminated
Nov 16
Waxing Gibbous
Nov 17
Full
Nov 25
Last Quarter
Dec 2
New
Dec 9
First Quarter

Hourly Weather History & Observations

Time (CST) Temp. Windchill Dew Point Humidity Pressure Visibility Wind Dir Wind Speed Gust Speed Precip Events Conditions
12:15 AM 35.6 °F 28.6 °F 33.8 °F 93% 29.80 in 10.0 mi SSE 9.2 mph - N/A   Clear
12:35 AM 35.6 °F 28.6 °F 33.8 °F 93% 29.80 in 10.0 mi SSE 9.2 mph - N/A   Clear
12:55 AM 35.6 °F 28.0 °F 32.0 °F 87% 29.79 in 10.0 mi SSE 10.4 mph - N/A   Clear
1:15 AM 35.6 °F 28.6 °F 32.0 °F 87% 29.79 in 10.0 mi South 9.2 mph - N/A   Clear
1:35 AM 35.6 °F 28.6 °F 33.8 °F 93% 29.78 in 10.0 mi SSE 9.2 mph - N/A   Scattered Clouds
1:55 AM 37.4 °F 30.8 °F 33.8 °F 87% 29.78 in 10.0 mi SSE 9.2 mph - N/A   Overcast
2:15 AM 37.4 °F 29.8 °F 33.8 °F 87% 29.79 in 10.0 mi South 11.5 mph 16.1 mph N/A   Overcast
2:35 AM 37.4 °F 29.3 °F 33.8 °F 87% 29.78 in 10.0 mi South 12.7 mph 18.4 mph N/A   Overcast
2:55 AM 39.2 °F 32.5 °F 33.8 °F 81% 29.78 in 10.0 mi South 10.4 mph - N/A   Overcast
3:15 AM 37.4 °F 30.3 °F 33.8 °F 87% 29.77 in 10.0 mi South 10.4 mph - N/A   Overcast
3:35 AM 37.4 °F 30.3 °F 33.8 °F 87% 29.76 in 10.0 mi South 10.4 mph - N/A   Overcast
3:55 AM 37.4 °F 29.8 °F 33.8 °F 87% 29.76 in 10.0 mi SSE 11.5 mph 17.3 mph N/A   Overcast
4:15 AM 37.4 °F 29.8 °F 33.8 °F 87% 29.75 in 10.0 mi SSE 11.5 mph - N/A   Overcast
4:35 AM 37.4 °F 30.3 °F 33.8 °F 87% 29.74 in 10.0 mi SSE 10.4 mph - N/A   Mostly Cloudy
5:45 AM 37.4 °F 29.8 °F 35.6 °F 93% 29.73 in 10.0 mi SSE 11.5 mph - N/A   Overcast
6:45 AM 37.4 °F 30.8 °F 35.6 °F 93% 29.71 in 10.0 mi SE 9.2 mph - N/A   Overcast
7:45 AM 35.6 °F 27.5 °F 35.6 °F 100% 29.69 in 7.0 mi SE 11.5 mph - N/A   Overcast
8:45 AM 37.4 °F 28.9 °F 37.4 °F 100% 29.70 in 2.5 mi South 13.8 mph 18.4 mph N/A   Overcast
9:05 AM 37.4 °F 28.2 °F 37.4 °F 100% 29.69 in 0.8 mi South 16.1 mph - N/A   Overcast
9:30 AM 37.4 °F 29.8 °F 37.4 °F 100% 29.69 in 0.2 mi SSE 11.5 mph 18.4 mph N/A Fog Fog
9:45 AM 37.4 °F 29.8 °F 37.4 °F 100% 29.69 in 0.2 mi SSE 11.5 mph - N/A Fog Fog
10:15 AM 39.2 °F 32.0 °F 39.2 °F 100% 29.68 in 0.5 mi SSE 11.5 mph - N/A Fog Fog
10:50 AM 39.2 °F 32.0 °F 39.2 °F 100% 29.65 in 0.5 mi SE 11.5 mph 17.3 mph N/A Fog Fog
11:50 AM 41.0 °F 34.7 °F 41.0 °F 100% 29.60 in 1.0 mi SE 10.4 mph 17.3 mph N/A   Overcast
12:50 PM 42.8 °F 36.6 °F 42.8 °F 100% 29.57 in 1.0 mi SE 11.5 mph - N/A Fog Drizzle
1:45 PM 42.8 °F 38.0 °F 42.8 °F 100% 29.53 in 1.0 mi SE 8.1 mph - N/A Rain Light Rain
2:45 PM 44.6 °F 39.2 °F 44.6 °F 100% 29.48 in 1.8 mi SE 10.4 mph 16.1 mph N/A   Drizzle
3:45 PM 46.4 °F 41.1 °F 46.4 °F 100% 29.43 in 4.0 mi SSE 11.5 mph 17.3 mph N/A Rain Rain
4:45 PM 50.0 °F - 50.0 °F 100% 29.39 in 4.0 mi SSE 16.1 mph 23.0 mph N/A Rain Heavy Rain
5:50 PM 51.8 °F - 51.8 °F 100% 29.38 in 5.0 mi South 17.3 mph 24.2 mph N/A Rain Light Rain
6:50 PM 51.8 °F - 51.8 °F 100% 29.36 in 7.0 mi South 13.8 mph 23.0 mph N/A Rain Light Rain
7:05 PM 51.8 °F - 51.8 °F 100% 29.36 in 5.0 mi South 12.7 mph 19.6 mph N/A Rain , Thunderstorm Heavy Thunderstorms and Rain
7:45 PM 51.8 °F - 51.8 °F 100% 29.35 in 7.0 mi South 10.4 mph 23.0 mph N/A   Overcast
8:30 PM 51.8 °F - 51.8 °F 100% 29.36 in 7.0 mi South 15.0 mph - N/A   Overcast
8:55 PM 51.8 °F - 51.8 °F 100% 29.37 in 7.0 mi South 11.5 mph - N/A   Overcast
9:15 PM 51.8 °F - 51.8 °F 100% 29.37 in 10.0 mi South 9.2 mph - N/A   Overcast
9:35 PM 51.8 °F - 51.8 °F 100% 29.37 in 10.0 mi South 11.5 mph 17.3 mph N/A   Overcast
9:50 PM 53.6 °F - 53.6 °F 100% 29.37 in 10.0 mi South 9.2 mph - N/A   Overcast
9:55 PM 51.8 °F - 51.8 °F 100% 29.37 in 7.0 mi SW 9.2 mph - N/A   Overcast
10:15 PM 51.8 °F - 51.8 °F 100% 29.38 in 7.0 mi South 9.2 mph - N/A   Overcast
10:35 PM 51.8 °F - 51.8 °F 100% 29.38 in 7.0 mi South 11.5 mph 16.1 mph N/A   Mostly Cloudy
10:55 PM 51.8 °F - 51.8 °F 100% 29.38 in 7.0 mi SSW 10.4 mph - N/A   Scattered Clouds
11:15 PM 51.8 °F - 51.8 °F 100% 29.39 in 7.0 mi SSW 9.2 mph - N/A   Scattered Clouds
11:35 PM 51.8 °F - 51.8 °F 100% 29.40 in 7.0 mi SSW 10.4 mph 16.1 mph N/A   Scattered Clouds
11:55 PM 50.0 °F - 50.0 °F 100% 29.40 in 7.0 mi South 9.2 mph - N/A   Scattered Clouds